Content
SEND FEEDBACK

Daily
Averages
Monthly
Summary
Turkmenistan

ASHGABAT, TURKMENISTAN


Home > Asia > Turkmenistan
Elevation: 775 feet     Latitude: 37 58N     Longitude: 058 20E

WEATHER
 
SELECT A DAY
Number of Records: 177,096;   Date Range: 3/15/97 - 7/20/14
 
SHARE

PRINT THIS DATA

[ ← Previous Day ]
WEATHER ALMANAC - JULY 23, 2013
[ Next Day → ]
[ °C ]   °F
Weather ElementAverageHighLow
Temperature93.6 °F106 °F (5:00 pm)79 °F (5:00 am)
Dewpoint48.5 °F62 °F (8:00 am)34 °F (5:00 pm)
Humidity23.7 %51 % (5:00 am)4 % (5:00 pm)
Barometer29.70 in29.77 in (8:00 am)29.62 in (8:00 pm)
Wind Speed11.7 mph20.1 mph (2:00 pm)
Weather ElementAverage
Visibility6.2 mi
Wind DirectionSSW (189.7 °)

Weather ElementTotal
Precipitation---
Cooling Degree Days27.5 (Base 65)
Growing Degree Days42.5 (Base 50)
Averaged from 37 records on July 23, 2013
WEATHER CONDITIONS BREAKOUT
WIND DIRECTION BREAKOUT
WEATHER BY HOUR - JULY 23, 2013
[ °C ]   °F
Local TimeTemperatureDewpointHumidityBarometerVisibilityWind DirectionWind SpeedGust SpeedPrecipitationEventsConditions
1:00 AM84.2 °F53.6 °F35 %29.68 in6.2 miNNE (30°)4.5 mphClear
2:00 AM82.0 °F50.0 °F22 %29.68 in6.0 miWest (260°)4.5 mph
2:00 AM82.4 °F48.2 °F30 %29.68 in6.2 miWest (260°)6.7 mphClear
3:00 AM80.6 °F53.6 °F39 %29.68 in6.2 miWNW (290°)6.7 mphClear
4:00 AM82.4 °F60.8 °F48 %29.71 in6.2 miWest (280°)6.7 mphScattered Clouds
5:00 AM80.6 °F60.8 °F51 %29.71 in6.2 miNNW (330°)6.7 mphScattered Clouds
5:00 AM79.0 °F55.0 °F33 %29.72 in6.0 miNW (320°)6.7 mphPartly Cloudy
6:00 AM82.4 °F60.8 °F48 %29.74 in6.2 miWest (280°)11.2 mphMostly Cloudy
7:00 AM82.4 °F60.8 °F48 %29.74 in6.2 miWNW (300°)11.2 mphMostly Cloudy
8:00 AM84.2 °F60.8 °F45 %29.77 in6.2 miWNW (300°)11.2 mphMostly Cloudy
8:00 AM84.0 °F62.0 °F37 %29.74 in6.0 miWNW (300°)11.2 mphScattered Clouds
8:30 AM84.2 °F60.8 °F45 %29.77 in6.2 miNW (320°)8.9 mphPartly Cloudy
9:00 AM86.0 °F60.8 °F43 %29.77 in6.2 miNW (320°)11.2 mphMostly Cloudy
10:00 AM89.6 °F59.0 °F36 %29.77 in6.2 miNW (310°)11.2 mphScattered Clouds
11:00 AM90.0 °F60.0 °F27 %29.73 in6.0 miNNW (340°)6.7 mphScattered Clouds
11:00 AM91.4 °F57.2 °F31 %29.77 in6.2 miNNW (330°)6.7 mphScattered Clouds
12:00 PM95.0 °F53.6 °F25 %29.74 in6.2 miNorth (360°)4.5 mphScattered Clouds
1:00 PM98.6 °F48.2 °F18 %29.74 in6.2 miEast (100°)11.2 mphPartly Cloudy
2:00 PM104.0 °F41.0 °F12 %29.71 in6.2 miEast (90°)15.7 mphClear
2:00 PM100.0 °F44.0 °F8 %29.72 in6.0 miEast (90°)20.1 mph
2:30 PM104.0 °F41.0 °F12 %29.71 in6.2 miEast (100°)17.9 mphClear
3:00 PM105.8 °F39.2 °F10 %29.71 in6.2 miEast (90°)17.9 mphClear
3:30 PM105.8 °F39.2 °F10 %29.68 in6.2 miEast (100°)17.9 mphClear
4:00 PM104.0 °F39.2 °F11 %29.68 in6.2 miEast (100°)17.9 mphClear
4:30 PM104.0 °F39.2 °F11 %29.68 in6.2 miEast (100°)17.9 mphClear
5:00 PM106.0 °F34.0 °F4 %29.63 in6.0 miEast (100°)17.9 mph
5:00 PM105.8 °F39.2 °F10 %29.65 in6.2 miEast (100°)17.9 mphClear
5:30 PM104.0 °F39.2 °F11 %29.65 in6.2 miEast (100°)15.7 mphClear
6:00 PM104.0 °F39.2 °F11 %29.65 in6.2 miEast (100°)15.7 mphClear
6:30 PM104.0 °F39.2 °F11 %29.65 in6.2 miEast (100°)17.9 mphClear
7:00 PM102.2 °F41.0 °F12 %29.65 in6.2 miEast (100°)15.7 mphClear
8:00 PM101.0 °F43.0 °F7 %29.62 in6.0 miEast (100°)13.4 mph
8:00 PM98.6 °F42.8 °F15 %29.65 in6.2 miEast (100°)13.4 mphClear
9:00 PM96.8 °F39.2 °F14 %29.68 in6.2 miESE (110°)11.2 mphClear
10:00 PM93.2 °F39.2 °F15 %29.68 in6.2 miSE (130°)8.9 mphClear
11:00 PM90.0 °F47.0 °F14 %29.66 in6.0 miSE (140°)6.7 mph
11:00 PM91.4 °F41.0 °F17 %29.68 in6.2 miSE (140°)6.7 mphClear
Hourly data recorded from UTAA, located miles away from Ashgabat, Turkmenistan







STORIES FROM OUR PARTNERS